TimeCDT,TemperatureF,Dew PointF,Humidity,Sea Level PressureIn,VisibilityMPH,Wind Direction,Wind SpeedMPH,Gust SpeedMPH,PrecipitationIn,Events,Conditions,WindDirDegrees,DateUTC
12:53 AM,80.1,70.0,71,30.05,10.0,SSE,3.5,-,N/A,,Clear,160,2013-09-05 05:53:00
1:53 AM,78.1,70.0,76,30.05,10.0,Calm,Calm,-,N/A,,Clear,0,2013-09-05 06:53:00
2:53 AM,79.0,70.0,74,30.04,10.0,Calm,Calm,-,N/A,,Clear,0,2013-09-05 07:53:00
3:53 AM,77.0,70.0,79,30.04,10.0,East,3.5,-,N/A,,Partly Cloudy,90,2013-09-05 08:53:00
4:53 AM,77.0,70.0,79,30.05,10.0,Calm,Calm,-,N/A,,Partly Cloudy,0,2013-09-05 09:53:00
5:53 AM,75.9,70.0,82,30.06,10.0,Calm,Calm,-,N/A,,Clear,0,2013-09-05 10:53:00
6:53 AM,75.0,69.1,82,30.08,10.0,ENE,4.6,-,N/A,,Clear,60,2013-09-05 11:53:00
7:53 AM,75.9,66.9,74,30.09,10.0,East,3.5,-,N/A,,Clear,80,2013-09-05 12:53:00
8:53 AM,81.0,66.9,62,30.10,10.0,SE,5.8,-,N/A,,Clear,130,2013-09-05 13:53:00
9:53 AM,84.9,69.1,59,30.11,10.0,Variable,3.5,-,N/A,,Partly Cloudy,0,2013-09-05 14:53:00
10:53 AM,89.1,69.1,52,30.12,10.0,SSE,3.5,-,N/A,,Partly Cloudy,160,2013-09-05 15:53:00
11:53 AM,93.9,68.0,43,30.10,10.0,NNE,4.6,-,N/A,,Clear,20,2013-09-05 16:53:00
12:53 PM,93.0,66.0,41,30.09,10.0,Calm,Calm,-,N/A,,Clear,0,2013-09-05 17:53:00
1:53 PM,99.0,62.1,30,30.06,10.0,NNE,9.2,-,N/A,,Clear,20,2013-09-05 18:53:00
2:53 PM,99.0,60.1,28,30.04,10.0,North,5.8,-,N/A,,Partly Cloudy,10,2013-09-05 19:53:00
3:53 PM,99.0,57.0,25,30.01,10.0,Calm,Calm,-,N/A,,Clear,0,2013-09-05 20:53:00
4:53 PM,99.0,57.0,25,30.00,10.0,Variable,3.5,-,N/A,,Partly Cloudy,0,2013-09-05 21:53:00
5:53 PM,98.1,55.9,24,30.00,10.0,East,8.1,-,N/A,,Clear,90,2013-09-05 22:53:00
6:53 PM,96.1,57.0,27,30.00,10.0,East,9.2,-,N/A,,Clear,80,2013-09-05 23:53:00
7:53 PM,93.0,57.0,30,30.01,10.0,East,5.8,-,N/A,,Clear,80,2013-09-06 00:53:00
8:53 PM,89.1,57.9,35,30.03,10.0,East,4.6,-,N/A,,Clear,80,2013-09-06 01:53:00
9:53 PM,84.9,59.0,41,30.05,10.0,ENE,4.6,-,N/A,,Clear,60,2013-09-06 02:53:00
10:53 PM,82.9,59.0,44,30.06,10.0,ENE,4.6,-,N/A,,Clear,70,2013-09-06 03:53:00
11:53 PM,82.9,59.0,44,30.05,10.0,East,4.6,-,N/A,,Clear,80,2013-09-06 04:53:00